Wind_Speed
8 7 8 8 9 10 11 14 11 7 8 7 8 10 13 11 9 13 9 10 9 10 12 14 13 13 15 13 12 12 11 12 14 13 12 11 11 11 11 11 11 11 10 12 15 16 16 14 13 11 10 11 11 12 14 12 8 11 15 14 9 8 9 10 10 8 6 5 7 8 8 8 8 8 8 8 8 8 8 8 7 7 6 5 6 5
8 8 9 11 12 9 10 14 8 6 7 8 8 6 10 10 8 13 11 10 8 8 8 12 14 12 14 15 12 11 11 12 14 13 13 13 13 11 12 12 11 10 10 12 13 14 13 11 10 9 9 11 14 15 13 11 10 12 15 14 13 11 9 10 11 10 8 5 6 8 8 9 8 8 8 8 8 8 8 8 8 8 7 6 6 6
8 8 11 11 8 3 3 6 5 6 8 9 8 7 7 8 9 10 8 6 7 7 8 12 12 12 15 13 10 11 11 10 13 14 13 14 14 12 11 11 11 11 11 12 12 10 9 10 7 6 5 8 14 17 15 16 16 16 17 19 21 17 13 12 12 13 9 7 7 8 8 9 9 8 9 9 9 8 9 9 8 8 8 7 6 6
7 9 13 11 6 4 5 4 6 7 8 9 9 8 8 9 10 8 7 8 9 7 9 11 9 10 10 7 8 9 10 9 12 14 13 13 13 11 11 10 11 12 12 12 9 9 12 9 5 4 2 3 12 18 18 20 21 20 20 22 22 18 14 12 12 13 9 8 8 10 9 9 10 10 10 10 9 9 9 9 9 8 7 7 6 6
8 6 9 8 7 8 10 8 9 8 8 10 11 11 9 9 11 6 5 9 9 8 11 9 7 9 8 9 9 8 8 9 11 14 13 13 12 10 11 10 10 11 12 9 9 14 11 6 3 5 8 7 13 16 18 22 25 24 23 22 21 19 17 15 14 13 10 10 12 12 11 11 11 11 9 9 9 8 9 9 9 8 7 8 7 6
9 5 5 5 6 10 11 9 11 10 8 10 12 15 13 11 12 7 5 7 7 8 11 11 9 7 10 12 11 10 10 10 10 13 13 12 11 9 9 9 10 10 5 8 15 13 7 8 7 12 15 12 16 15 13 16 21 23 23 23 22 19 19 17 15 14 13 13 14 13 13 13 11 11 9 9 9 8 9 9 9 9 8 8 7 6
6 6 6 8 8 11 11 10 12 11 9 8 10 16 16 13 10 8 8 9 7 4 7 12 10 5 9 12 13 13 13 14 13 11 12 11 9 10 9 8 9 7 9 14 13 13 11 12 13 16 16 13 19 21 16 13 14 17 18 19 18 16 17 18 14 14 14 13 13 13 13 13 12 11 10 10 9 9 9 9 10 9 9 8 7 7
7 5 6 9 10 11 10 9 11 13 11 6 5 13 16 12 8 8 9 9 7 3 4 11 11 6 6 10 14 16 14 16 14 11 11 10 9 9 8 9 8 6 13 10 10 13 13 14 13 14 17 17 20 23 19 14 12 13 13 14 16 16 17 18 17 18 16 14 14 13 13 12 12 12 12 11 10 10 10 10 10 9 9 9 8 8
9 10 8 10 10 8 9 10 11 13 12 5 3 10 13 13 11 10 11 9 6 5 5 9 11 8 4 7 12 15 14 16 15 14 13 11 11 9 7 10 6 9 10 10 11 11 12 14 12 12 16 17 21 22 18 17 16 15 16 16 17 18 19 19 21 20 16 14 13 13 13 13 14 14 13 12 11 11 10 10 10 9 9 9 9 9
6 10 11 12 11 8 10 11 10 14 11 3 5 10 10 11 12 9 10 8 6 7 8 8 11 9 5 7 9 10 12 13 12 12 11 10 11 9 8 9 6 10 7 10 12 11 11 12 10 13 16 17 20 22 21 21 21 21 23 20 19 21 20 20 20 17 15 13 12 12 13 14 15 14 14 13 12 12 11 10 10 9 10 10 9 9
1 3 6 10 11 6 4 4 5 12 11 3 5 10 8 8 9 7 8 7 6 8 9 10 12 10 6 7 8 10 11 9 8 9 10 11 10 8 8 5 10 8 8 7 11 10 11 12 11 15 18 17 16 19 21 23 23 24 23 20 20 19 16 16 16 13 12 12 10 11 13 14 15 14 14 14 13 12 11 11 10 9 10 10 9 9
5 6 6 9 11 5 2 4 5 10 10 5 7 9 8 7 7 7 7 7 7 7 9 11 11 10 7 4 4 6 8 6 6 8 11 12 12 11 10 7 12 10 9 7 10 10 11 12 12 15 16 17 17 19 20 22 24 26 23 19 19 18 14 14 16 11 11 10 10 10 13 13 14 14 14 15 14 13 12 11 10 10 11 10 9 9
8 10 10 11 11 7 7 8 8 9 9 8 8 8 7 7 6 7 7 7 7 6 7 9 9 9 6 4 5 3 8 6 3 7 9 8 7 6 6 7 10 11 11 10 10 10 10 9 11 14 15 17 19 19 19 21 24 25 23 21 20 18 16 16 17 14 13 10 9 10 12 12 13 13 14 14 14 13 12 11 11 11 11 11 10 9
7 9 13 13 10 9 11 8 7 8 9 10 9 8 8 6 6 8 7 7 8 6 5 6 6 7 4 6 9 5 5 7 6 7 7 6 5 3 5 8 7 9 11 9 9 9 8 9 10 13 15 16 17 19 20 21 22 21 20 23 21 18 17 17 18 16 13 11 9 10 11 11 12 13 13 14 13 12 12 11 12 12 12 12 11 10
9 8 12 13 8 11 13 12 7 7 9 10 10 8 7 6 6 7 6 5 6 5 6 7 6 6 5 4 8 10 9 10 10 10 9 8 8 7 9 11 10 10 10 9 9 9 9 11 12 14 15 14 15 18 19 18 19 17 16 20 21 19 18 18 17 16 14 12 9 8 10 10 11 12 12 13 12 12 12 12 12 12 12 12 12 12
10 7 10 16 12 11 15 14 10 8 9 9 9 10 8 6 7 4 2 1 2 3 4 7 5 3 3 4 6 7 9 10 11 12 12 11 12 13 13 14 12 11 10 9 9 10 11 11 12 12 13 12 12 13 14 13 14 15 15 16 18 19 19 18 19 20 18 17 12 8 8 9 10 11 12 12 12 11 11 11 12 12 12 13 13 13
9 6 8 15 13 11 13 14 12 10 6 4 7 10 6 5 7 5 3 3 2 5 5 5 6 4 6 7 7 7 7 8 9 9 9 9 11 12 11 11 11 10 9 9 11 12 11 10 10 11 13 14 13 11 12 12 11 12 14 15 15 17 18 16 18 21 20 18 14 9 7 8 9 9 10 12 12 12 11 11 11 11 12 13 14 14
6 5 5 12 13 12 11 10 12 12 8 3 6 8 5 4 5 6 4 4 5 7 6 5 7 7 6 6 9 11 8 7 7 9 9 8 9 10 9 10 11 11 11 11 12 12 11 9 9 10 13 14 13 13 14 13 11 10 9 11 11 13 14 14 16 21 20 17 14 12 9 8 8 9 10 11 12 13 13 12 11 11 12 13 13 14
5 6 6 10 12 13 10 9 10 11 12 9 6 5 6 5 6 5 5 4 6 7 6 7 8 7 6 5 10 13 11 10 9 9 9 8 9 9 10 11 12 13 12 11 12 11 10 10 9 9 11 13 12 13 14 14 13 11 8 8 9 9 10 13 15 17 18 18 16 15 13 9 9 9 10 11 12 13 14 13 13 12 12 12 13 14
5 5 5 8 10 10 10 9 9 8 11 12 8 6 7 5 5 5 5 5 6 6 6 7 8 5 2 1 7 9 10 12 10 9 8 8 9 9 9 11 11 12 11 10 11 10 10 10 10 9 10 12 13 13 13 12 13 12 10 11 13 12 11 12 14 14 16 18 17 15 14 12 11 11 11 12 13 14 13 13 14 14 12 12 12 13
6 5 5 5 7 8 7 8 11 10 9 11 9 8 8 6 5 5 5 5 6 6 6 7 7 3 4 2 3 8 12 11 10 10 9 9 9 9 10 10 10 10 11 11 10 10 10 11 11 10 11 13 13 13 12 12 12 11 11 14 16 17 16 15 15 15 16 16 15 15 15 15 15 13 13 14 14 13 13 13 14 14 12 12 12 12
5 6 7 6 6 8 7 7 11 12 9 8 9 10 9 8 6 6 7 6 6 6 5 6 5 3 5 4 3 12 11 10 12 12 11 11 11 10 10 10 11 11 10 9 10 10 10 11 11 11 11 13 13 13 12 12 12 11 11 12 14 15 16 15 15 16 18 18 18 18 17 17 17 15 14 14 14 13 14 14 14 14 13 13 13 13
0 3 6 8 7 7 6 4 6 8 9 9 9 9 10 9 7 8 7 5 6 7 6 7 5 3 3 4 4 9 10 11 12 11 11 12 11 10 10 10 11 11 9 9 9 8 9 9 10 10 11 12 12 11 12 11 11 11 10 10 11 12 13 13 13 15 18 20 20 19 18 17 16 15 15 15 14 14 14 15 15 14 14 14 14 14
2 3 6 8 6 7 8 6 6 7 9 10 9 8 9 8 7 9 6 1 3 6 6 7 6 2 3 2 3 6 8 10 11 10 11 11 9 9 10 10 11 10 9 9 8 7 7 8 8 8 9 11 11 9 10 11 11 11 11 10 10 11 11 11 11 13 15 17 18 17 16 16 14 14 15 15 15 15 15 15 15 15 15 14 14 15
3 3 4 6 5 5 8 8 7 7 8 9 9 10 10 10 10 10 5 2 4 6 6 6 4 3 3 1 3 6 8 9 10 10 10 9 8 9 9 10 10 10 9 9 8 7 7 7 7 7 7 9 9 9 10 10 10 10 10 9 9 9 10 10 9 10 11 12 14 15 15 15 13 13 16 17 17 17 17 16 15 15 15 15 14 14
4 3 3 6 6 4 5 4 4 5 6 8 10 10 9 12 14 10 6 6 7 7 8 7 2 4 5 5 6 6 7 8 9 10 10 10 10 10 10 10 10 9 9 9 9 7 6 6 7 7 6 7 8 7 8 8 7 8 8 8 9 9 9 9 8 8 9 9 10 11 12 13 12 12 14 15 14 14 14 15 15 14 14 14 15 15
3 4 5 6 6 3 2 4 10 12 9 9 13 11 8 10 11 9 7 8 7 6 8 7 5 10 8 7 8 7 7 8 9 10 9 10 11 10 10 10 10 9 9 10 9 8 8 8 8 8 8 8 8 7 6 7 7 7 8 8 8 9 9 9 9 9 8 9 9 9 10 10 10 11 11 11 11 10 8 10 13 15 14 15 15 15
3 5 6 7 6 3 2 3 7 14 13 8 7 6 6 6 7 7 7 6 6 4 5 3 6 13 11 10 10 7 6 7 9 10 10 9 11 10 9 10 10 10 10 10 10 9 9 9 8 9 9 8 8 8 6 6 7 7 7 7 7 7 7 8 8 9 10 11 12 13 13 10 8 8 9 10 12 13 11 12 15 15 15 16 16 15
5 6 8 8 7 5 3 3 3 6 11 9 5 4 2 1 3 3 1 2 2 2 2 4 7 10 9 10 10 8 6 7 7 8 8 8 8 10 11 11 11 11 10 10 10 10 9 9 8 9 10 9 9 9 8 7 7 7 7 6 6 6 6 6 7 7 10 12 12 12 13 11 9 8 8 8 11 14 16 16 14 12 10 10 11 11
4 3 8 9 7 6 4 3 5 3 6 7 6 8 8 6 7 7 7 7 5 7 10 12 12 10 8 8 9 8 6 6 7 7 7 5 5 8 11 11 11 11 11 10 10 10 9 9 9 9 10 10 9 9 9 8 7 7 6 6 6 7 7 7 7 7 8 10 11 12 12 11 10 9 9 9 10 13 14 11 9 10 9 7 6 6
3 2 6 7 6 6 6 3 2 2 4 6 7 9 10 8 8 10 10 9 7 9 11 14 13 9 6 7 8 6 5 6 8 9 9 5 4 6 9 10 10 10 10 10 10 9 9 9 9 9 10 10 10 9 8 8 8 7 6 6 6 6 7 6 7 8 7 8 10 12 12 11 10 8 8 9 11 12 12 9 7 9 10 9 7 6
4 3 5 6 6 6 7 8 6 2 2 6 9 8 6 7 8 8 8 9 8 5 7 9 9 6 6 8 10 10 8 8 10 11 10 9 9 10 10 9 10 10 10 10 10 9 9 8 8 8 8 9 10 10 8 8 8 7 6 6 6 6 6 6 7 7 8 8 9 10 10 11 10 8 8 8 10 10 10 8 7 8 9 9 9 8
4 4 5 6 6 5 6 7 6 4 2 6 7 4 2 5 4 5 7 9 10 7 3 6 7 6 7 9 10 11 10 9 10 10 9 11 14 15 14 12 11 11 9 9 10 10 9 10 10 10 9 8 9 9 9 9 9 8 7 6 6 6 6 7 8 7 7 8 8 8 8 8 8 8 7 6 7 8 8 7 6 7 7 7 8 8
4 5 6 6 6 4 6 7 5 6 6 3 0 3 4 5 5 4 6 7 8 8 6 8 8 8 8 8 10 11 10 10 11 11 12 12 12 13 15 15 14 14 13 12 12 11 10 10 11 11 12 12 11 10 10 10 9 8 8 8 8 7 7 7 8 8 7 7 7 7 7 6 7 7 6 6 5 6 7 7 6 8 8 8 8 8
6 7 4 3 4 2 5 7 5 6 4 1 3 3 4 6 9 10 8 6 7 8 9 10 10 9 9 10 11 12 13 13 13 12 10 9 8 9 10 11 13 14 14 13 12 11 11 11 12 13 14 13 12 12 11 11 10 9 9 8 8 7 8 8 9 9 8 8 7 7 7 6 7 7 7 7 6 5 6 6 6 8 9 9 9 9
4 5 3 2 3 3 4 6 4 1 3 4 3 4 5 8 11 9 6 5 6 7 9 10 10 10 11 11 12 12 13 14 14 13 12 11 10 9 8 7 6 8 8 9 11 13 14 13 13 14 13 13 13 12 12 11 10 10 9 9 8 8 7 7 8 9 8 7 7 6 6 7 6 6 6 7 7 7 6 7 8 8 9 8 8 8
2 2 3 4 4 3 4 5 3 3 3 4 5 4 3 4 4 3 4 5 5 6 10 11 11 12 12 11 11 12 12 12 10 10 12 12 12 11 11 10 9 9 9 8 9 14 18 18 16 15 14 14 14 14 13 10 8 8 8 8 8 8 8 7 8 7 6 6 6 5 5 5 4 4 4 5 6 7 7 7 8 8 8 8 8 8
2 1 2 3 3 3 4 5 4 4 4 3 4 3 4 4 4 2 5 7 4 5 10 12 12 13 12 11 12 12 10 8 8 7 8 10 11 11 12 12 13 13 12 12 12 13 15 17 18 17 16 16 16 16 15 11 7 5 5 6 6 5 5 6 6 5 5 5 5 4 4 4 3 3 3 3 4 5 5 5 6 6 6 7 7 7
4 2 2 3 3 3 5 6 4 2 1 2 4 3 3 3 4 3 3 6 5 6 8 10 10 11 11 10 10 8 4 3 6 7 7 9 10 9 10 11 12 13 13 12 12 12 10 10 10 11 11 13 13 14 14 13 9 7 6 6 4 2 3 5 5 5 4 3 3 2 2 2 1 0 1 2 2 3 4 3 4 4 5 6 7 7
6 5 4 5 6 6 7 6 2 2 3 3 3 2 1 1 3 4 6 6 6 6 7 8 8 8 7 6 6 4 4 2 6 8 7 9 10 10 10 10 11 11 12 12 12 9 7 6 7 8 8 9 10 10 11 11 10 9 8 7 5 3 4 5 6 6 4 3 3 3 2 2 3 3 4 4 4 4 5 5 5 5 6 6 7 8
5 5 5 7 7 6 6 6 1 4 4 4 3 3 3 1 3 4 2 5 6 5 4 6 6 5 5 3 3 6 7 7 9 9 8 8 9 9 10 10 10 10 11 12 11 10 8 7 8 9 9 10 10 10 10 10 9 8 8 7 5 5 5 6 6 6 6 5 5 5 4 4 5 5 5 6 6 6 7 7 7 8 8 8 9 9
3 3 5 6 6 5 5 5 2 4 3 5 3 2 4 4 2 3 4 6 7 5 6 7 6 5 6 7 7 8 9 9 10 9 8 8 8 8 9 10 10 10 10 10 9 10 10 8 8 9 9 9 9 9 9 9 9 8 7 7 5 5 5 7 7 7 7 7 7 6 6 6 6 5 6 7 7 8 8 8 9 9 9 10 11 10
3 3 5 2 2 4 5 4 1 4 2 4 2 2 3 3 3 6 6 7 8 8 7 7 6 6 6 7 8 8 9 9 8 8 8 8 7 8 9 9 9 9 9 9 9 10 10 9 8 8 9 8 8 8 8 8 9 8 7 7 7 7 7 8 9 9 8 8 8 8 8 8 8 8 8 9 10 10 10 9 10 10 11 12 12 12
4 4 3 2 4 4 3 0 2 4 4 3 2 4 5 5 5 5 6 7 8 8 7 6 6 6 6 6 7 6 7 8 7 7 7 7 7 8 8 8 8 9 9 9 9 10 10 9 9 9 9 8 8 8 8 8 8 8 9 9 9 9 10 10 10 10 10 10 10 10 10 10 10 10 11 11 12 13 13 12 12 12 12 13 14 14
5 4 3 5 5 4 4 5 4 4 6 7 7 7 7 7 6 6 7 7 6 6 6 5 5 5 5 4 5 5 5 6 6 6 6 6 6 6 6 7 7 8 8 8 9 9 10 10 10 10 9 9 9 9 8 9 9 9 10 10 10 10 11 11 11 11 11 12 12 11 12 12 12 13 12 13 13 14 15 16 16 16 16 16 16 16
5 3 3 5 7 8 8 6 5 6 7 8 8 8 8 8 7 8 8 8 6 6 6 5 5 5 5 4 4 4 5 6 5 5 5 5 4 5 5 6 6 7 7 7 8 8 9 10 10 10 10 10 10 10 9 9 10 11 11 11 11 12 12 12 12 12 12 12 13 14 14 14 15 15 14 14 15 16 17 18 18 19 20 19 18 18
4 2 2 4 5 4 5 6 7 7 7 8 7 7 8 8 7 7 7 7 6 6 6 5 5 5 5 5 5 5 4 5 4 4 3 3 3 4 4 4 5 6 6 7 8 8 9 9 9 10 10 11 10 10 10 10 10 11 12 12 12 12 12 13 13 13 13 13 14 15 16 16 16 16 15 15 16 17 18 19 19 20 20 20 20 19
3 2 0 2 2 3 6 9 8 7 8 7 6 6 6 7 7 7 7 7 7 6 6 5 5 4 4 5 5 4 3 3 3 3 3 2 2 2 3 4 5 6 6 7 8 8 8 9 10 10 10 10 10 10 10 11 11 11 12 12 12 13 13 14 14 14 15 15 15 15 16 16 17 17 17 18 18 18 19 19 19 20 21 21 18 17
2 3 1 3 5 6 8 9 8 7 7 7 6 6 6 6 7 7 6 6 6 5 5 4 4 4 4 4 4 3 2 2 2 3 4 3 3 3 4 6 6 7 8 8 8 9 9 10 10 11 11 11 11 10 11 11 11 11 12 12 12 12 13 14 14 15 16 16 16 16 17 17 18 18 20 20 20 20 21 22 22 21 20 18 16 17
2 1 1 1 3 4 6 6 5 4 4 5 6 6 5 5 4 4 4 3 3 3 3 2 2 2 2 3 3 3 2 2 3 3 4 4 4 5 6 7 8 9 10 10 10 10 11 11 11 12 13 13 12 12 12 12 12 12 12 12 12 13 14 14 14 15 16 16 16 17 17 17 18 19 20 21 21 22 22 24 24 22 17 14 15 18
3 3 3 1 1 4 6 5 3 3 4 7 6 5 4 3 2 2 2 2 2 2 2 3 3 3 2 2 2 2 3 3 3 3 4 5 6 6 7 9 10 11 11 11 11 11 11 12 13 14 15 14 14 14 15 15 15 15 15 15 15 15 16 16 16 16 15 15 15 16 16 17 17 18 19 20 20 21 21 21 22 22 20 18 17 15
Wind_Direction
201 212 217 219 224 210 211 226 236 288 309 290 250 212 222 228 203 223 211 150 185 213 206 220 227 221 230 225 189 183 200 207 218 205 186 199 198 193 196 190 190 193 195 195 193 190 184 173 156 151 159 158 152 140 137 147 133 109 122 132 136 146 152 156 152 146 157 156 139 145 149 140 132 125 117 106 98 91 90 92 92 94 97 104 107 106
210 224 221 219 231 220 208 225 244 305 299 279 270 234 222 233 211 207 192 141 176 227 215 217 231 225 230 233 196 176 198 205 216 205 187 203 205 196 196 192 191 193 195 197 194 190 174 144 134 147 162 158 139 137 138 118 111 126 136 140 145 158 167 161 150 137 150 183 169 159 151 139 133 128 122 110 102 98 94 92 89 88 89 88 87 85
214 231 231 218 220 228 208 232 252 262 256 251 256 253 230 227 221 197 161 141 180 211 231 223 226 229 231 228 183 175 203 208 214 209 197 205 205 196 195 190 193 196 198 202 190 170 128 104 125 146 155 163 137 130 125 112 123 145 159 161 157 162 166 160 151 141 162 212 183 153 145 138 133 124 117 110 108 108 105 101 94 87 86 86 84 82
210 218 227 213 168 193 223 232 244 241 240 242 242 243 236 218 219 202 166 198 202 202 242 236 223 231 226 200 169 183 206 210 212 211 201 206 207 198 192 192 198 197 200 203 171 96 76 89 138 136 134 152 118 125 139 137 140 152 165 166 156 155 155 155 156 147 180 216 163 141 136 128 123 116 112 111 110 110 108 103 98 97 97 96 89 83
235 196 204 197 153 198 223 216 226 234 225 229 236 240 241 223 223 225 185 200 200 207 241 251 234 221 200 188 190 188 204 209 205 205 202 205 208 192 186 194 204 207 208 194 113 78 76 105 124 145 171 162 123 135 157 156 155 158 162 162 156 157 155 157 160 156 187 190 149 140 131 120 120 124 126 122 116 115 114 108 105 108 108 104 95 86
242 134 139 199 185 206 221 214 214 224 228 221 226 239 252 247 230 214 177 193 209 210 212 224 237 213 185 199 201 184 196 206 200 202 201 202 202 190 188 194 203 209 185 97 95 99 130 158 165 179 179 155 134 152 173 164 160 157 158 162 159 160 159 157 160 168 188 177 152 149 141 135 138 136 134 126 120 120 116 111 111 109 106 104 96 86
229 140 165 214 214 212 218 222 212 212 236 232 206 220 246 263 243 210 195 204 225 234 194 208 233 221 186 200 199 185 193 202 198 198 200 200 198 198 196 194 208 192 105 91 119 144 163 176 183 182 173 146 138 158 178 175 161 148 150 160 154 152 158 156 165 185 191 176 161 158 148 145 143 132 124 119 116 115 113 112 110 106 104 101 95 88
218 191 190 203 210 214 217 227 209 202 230 249 189 202 224 245 241 223 226 222 227 259 208 212 231 231 196 195 190 182 192 202 192 188 200 201 201 206 201 200 210 149 110 118 159 160 164 184 192 174 161 151 144 155 163 153 138 129 138 151 146 151 161 161 177 196 192 177 169 160 150 143 134 126 122 121 118 116 117 117 114 111 106 100 98 94
202 215 201 195 209 213 216 224 204 202 225 246 216 211 214 224 226 223 234 235 231 243 231 215 221 228 216 198 185 177 194 204 189 186 194 195 204 203 207 217 185 112 131 157 157 154 170 186 183 161 157 152 143 144 140 125 118 127 145 157 159 163 168 172 184 193 186 176 170 157 149 140 130 128 128 127 125 122 122 119 116 113 106 100 99 95
183 213 203 196 208 214 220 221 194 198 217 217 221 223 214 221 225 224 234 236 226 236 244 219 209 221 215 184 179 181 204 206 185 182 180 189 208 190 203 232 109 101 182 176 148 157 175 179 161 143 151 149 141 140 142 141 139 147 155 159 166 169 174 181 184 187 183 174 166 154 146 138 133 134 133 131 129 127 126 123 119 117 114 111 106 98
144 207 210 205 216 228 233 225 187 204 211 186 216 221 211 218 223 225 235 237 227 230 243 227 210 221 215 173 190 205 203 199 185 171 162 177 193 176 206 228 97 116 223 179 145 154 157 160 146 138 150 149 137 135 147 154 152 156 159 159 166 167 170 179 178 185 191 174 161 151 142 139 138 138 137 135 135 134 132 131 127 122 120 117 114 107
217 205 208 218 232 258 267 210 210 224 222 211 223 219 205 209 213 217 220 225 233 232 235 225 205 217 229 180 197 190 146 152 192 173 168 178 175 173 197 175 125 153 203 168 150 149 145 153 147 145 153 145 128 127 147 162 158 161 164 163 166 161 161 173 171 191 211 180 159 150 142 142 141 142 142 139 139 139 138 137 133 127 126 124 121 117
215 207 199 209 221 233 241 214 192 215 225 219 226 223 212 208 209 221 218 212 229 232 232 225 203 211 222 121 101 80 90 101 140 155 171 176 159 165 170 135 133 161 175 164 154 145 144 153 151 153 154 142 129 131 153 170 166 165 167 168 168 161 165 172 166 185 212 187 158 150 146 146 145 145 144 141 141 143 144 143 139 137 137 134 130 124
207 208 203 207 200 203 232 231 183 192 210 214 220 221 216 209 209 226 222 213 225 220 201 214 213 215 212 121 126 133 113 117 117 127 152 153 143 156 123 114 140 163 162 156 146 140 143 147 147 149 151 150 149 151 162 174 174 170 170 172 170 160 164 172 165 177 192 173 155 154 149 149 152 149 144 143 145 147 148 147 146 146 143 140 136 130
206 207 201 207 193 184 214 239 229 196 198 214 224 228 228 219 218 232 238 234 236 219 183 187 213 224 218 153 137 144 145 142 136 134 144 150 150 152 142 144 159 159 152 147 145 148 150 151 155 151 149 155 162 162 164 171 174 171 172 173 166 159 164 168 165 169 167 153 151 157 156 156 157 152 146 145 147 150 152 152 151 149 145 143 139 134
221 219 195 203 205 189 203 229 244 229 207 208 220 228 228 225 229 228 233 291 327 282 210 185 215 228 153 135 133 144 147 142 138 138 145 151 144 142 146 150 151 144 144 150 147 145 147 156 164 158 153 151 152 159 164 168 172 169 171 173 164 159 161 160 163 165 160 157 156 154 160 167 162 154 148 145 147 151 151 151 152 149 148 147 141 138
227 231 187 192 203 206 209 215 223 234 229 195 219 234 229 233 252 247 198 145 151 255 240 196 218 195 143 156 169 167 148 129 127 123 123 126 124 129 134 132 129 128 130 134 132 133 141 158 162 153 155 154 142 147 162 173 179 168 165 169 161 154 154 156 166 166 158 159 165 166 168 172 165 153 145 144 147 150 149 149 152 150 149 149 145 143
238 257 193 183 198 209 220 232 229 232 238 213 218 235 235 237 261 268 244 189 198 234 230 207 218 207 192 185 169 172 166 139 127 109 101 100 100 102 104 107 111 112 112 119 125 129 138 156 160 147 154 158 145 141 149 156 166 166 162 166 159 151 152 156 163 163 157 157 170 184 187 182 170 152 143 148 151 151 152 153 154 153 152 152 152 149
226 258 216 193 210 205 202 238 242 228 235 246 253 239 232 235 232 232 243 233 223 233 231 214 212 222 236 192 166 182 178 146 130 115 107 104 101 101 103 107 108 108 108 113 121 128 134 149 156 146 147 151 142 133 131 132 142 154 160 157 150 147 153 158 157 160 165 167 176 192 196 190 179 164 154 156 159 158 160 159 157 158 157 158 160 155
202 256 228 199 223 210 186 216 232 216 220 236 259 251 227 240 249 229 226 237 233 229 233 227 216 221 284 171 176 178 150 134 130 126 121 113 112 114 111 112 112 112 114 114 118 126 132 140 145 142 142 146 141 129 122 125 132 143 151 149 149 152 158 165 161 162 173 177 183 195 196 192 187 177 166 165 166 166 166 163 160 161 164 164 165 162
196 225 233 221 240 227 199 209 222 222 216 214 227 237 224 220 235 237 233 245 253 240 226 231 221 159 45 358 177 125 115 127 135 137 138 131 126 119 112 115 115 108 109 113 117 122 127 133 136 137 141 144 140 128 121 124 126 135 145 143 148 158 163 166 163 165 174 180 192 201 195 193 192 182 174 172 171 170 168 166 164 165 168 170 170 170
211 214 228 234 236 229 225 223 225 231 238 225 215 223 231 225 216 229 234 228 243 252 245 242 225 110 41 340 122 123 130 146 150 151 146 138 132 120 111 113 111 106 108 117 124 128 129 131 132 134 140 142 136 125 122 127 129 132 139 139 143 155 163 164 162 165 170 177 195 203 193 190 190 181 176 174 171 171 172 171 173 173 173 174 176 177
280 238 244 233 225 241 257 277 267 254 258 259 241 227 231 231 228 236 240 231 233 239 245 252 242 106 35 349 80 132 152 144 140 140 129 127 129 122 116 115 114 115 119 124 129 132 131 132 134 136 136 134 127 120 123 129 129 129 135 144 150 153 157 161 163 167 171 178 191 197 189 186 187 180 176 174 172 175 177 177 179 180 181 180 179 181
126 226 256 245 244 278 277 264 265 259 253 254 252 242 235 236 244 244 242 287 261 241 241 248 239 120 76 18 85 143 148 130 129 129 119 119 121 123 124 122 121 124 129 134 135 136 136 137 141 142 135 131 129 126 127 127 128 132 138 147 156 157 155 157 162 168 174 180 188 191 187 186 185 181 176 174 176 180 181 182 183 185 186 185 183 184
187 202 255 256 254 274 257 237 228 232 239 242 240 243 246 244 248 253 243 214 248 252 258 257 235 116 97 115 131 139 134 125 125 122 119 122 125 129 131 128 128 131 138 141 135 133 145 151 155 154 147 141 137 130 125 127 132 136 136 138 145 153 157 158 163 169 175 183 188 190 189 185 184 183 177 177 184 186 183 183 185 188 190 190 189 188
209 196 214 254 257 251 247 254 277 267 255 245 237 241 252 246 246 257 257 235 241 245 249 260 239 115 118 126 125 129 137 133 118 111 121 135 134 132 132 131 131 134 137 134 127 132 152 156 156 156 153 144 135 124 119 122 126 125 126 133 142 151 159 162 167 175 179 184 188 192 193 184 182 187 183 181 186 186 184 187 188 191 193 193 194 192
201 197 201 224 234 237 238 275 307 319 307 254 232 232 247 246 244 254 255 249 253 242 242 246 176 144 137 132 136 143 151 144 128 122 130 132 127 124 128 130 128 130 132 131 134 143 145 139 136 139 140 135 128 124 120 116 115 117 124 136 145 151 157 162 171 175 173 176 176 177 187 190 187 185 182 183 180 173 184 198 194 196 200 199 199 197
184 192 178 174 178 177 177 234 308 330 326 291 237 222 238 232 228 240 248 264 273 255 275 304 141 142 140 137 134 129 131 130 126 132 135 129 127 129 129 127 125 126 127 128 133 133 126 122 125 125 126 128 126 121 117 118 119 120 124 128 130 140 152 162 171 167 163 173 174 166 172 188 196 178 170 182 183 180 195 202 195 202 208 204 204 202
225 195 165 166 160 142 123 92 40 347 336 343 17 25 357 129 168 195 203 331 294 211 127 64 92 112 122 124 108 88 93 107 107 117 119 114 126 135 136 136 135 131 128 124 123 124 123 124 126 125 124 125 128 129 129 131 125 118 122 124 126 140 152 159 170 166 160 168 170 166 167 176 186 182 167 167 175 185 199 200 197 215 230 222 212 203
247 179 165 190 189 163 159 83 74 46 340 349 5 2 9 48 82 80 57 46 67 99 108 106 97 86 86 91 81 68 76 93 93 95 103 116 148 147 137 134 132 129 128 126 123 124 127 126 125 126 126 124 125 129 131 130 126 124 126 129 135 147 151 152 160 162 159 157 157 162 169 171 176 180 171 168 181 198 208 203 198 215 231 240 223 198
230 188 167 195 211 196 195 193 135 63 346 329 327 337 350 10 44 58 43 35 69 98 108 105 95 84 85 93 96 93 82 86 80 67 71 99 144 139 125 120 118 118 120 123 124 124 123 124 124 121 124 126 120 112 109 111 118 123 124 128 130 133 141 149 152 150 148 143 142 150 157 158 160 161 159 170 185 198 208 208 201 205 209 212 210 209
199 186 168 190 223 219 202 207 204 158 358 307 292 298 337 7 22 42 39 26 37 74 119 113 94 94 119 119 110 100 85 84 79 62 60 70 69 69 84 102 111 114 118 121 118 111 104 103 105 106 116 128 125 117 113 114 115 113 113 121 120 116 127 139 134 130 128 126 128 135 138 139 144 144 145 157 166 176 192 199 193 196 205 213 220 232
202 188 181 197 230 227 194 197 192 168 226 273 267 249 96 79 57 38 38 30 19 14 64 109 97 100 120 121 110 97 83 73 65 55 54 59 54 48 47 52 63 71 82 95 97 92 88 87 91 91 90 94 103 112 113 107 102 100 100 101 104 110 122 126 118 113 113 118 123 128 130 133 139 140 138 142 154 171 185 188 186 184 188 204 218 223
231 227 208 205 234 228 170 162 174 203 224 250 135 123 109 122 133 87 55 46 38 39 63 87 94 98 101 107 107 99 89 80 67 53 43 44 48 46 40 35 36 42 48 55 65 70 73 79 80 76 73 72 73 82 91 91 91 94 93 90 92 97 102 106 110 111 112 116 121 124 128 131 132 136 143 148 157 173 176 176 187 188 179 183 192 193
226 233 237 227 232 207 139 157 198 226 221 77 84 124 116 119 120 103 83 71 76 87 92 92 98 101 94 98 103 100 96 93 89 82 70 63 64 60 50 37 30 33 36 36 43 51 56 61 57 48 47 52 57 65 71 74 77 78 80 82 82 84 88 93 98 100 101 105 110 117 124 127 129 133 143 151 152 157 156 151 163 176 176 176 177 173
230 221 245 246 195 146 155 190 207 189 108 104 122 147 141 138 135 119 94 86 102 118 115 108 110 113 109 110 109 106 104 98 91 90 96 103 102 95 93 91 70 56 47 30 23 24 30 40 49 46 39 35 37 42 44 46 53 56 61 66 68 73 80 86 91 92 94 98 100 103 109 114 119 127 137 145 145 142 143 143 148 158 162 160 159 159
316 207 212 220 198 187 214 210 168 122 147 144 130 127 119 135 152 142 114 114 123 132 129 127 128 127 126 124 121 120 117 105 91 87 91 96 100 97 98 104 108 106 97 77 48 29 23 26 34 40 39 36 32 29 22 18 28 40 43 45 50 58 62 67 76 81 83 89 89 86 95 103 109 120 128 140 146 143 141 142 145 151 155 155 156 157
333 304 267 242 209 216 253 238 195 184 196 152 107 65 28 23 6 18 111 116 117 136 135 133 136 137 137 138 141 148 145 114 92 90 89 88 91 92 89 87 84 81 78 74 66 51 36 29 27 27 29 31 27 20 11 3 10 40 50 48 44 49 57 57 53 54 58 66 70 75 85 92 101 120 133 154 158 152 151 150 150 155 162 164 167 167
215 225 272 270 233 221 253 256 236 231 244 119 87 33 7 8 347 310 184 146 132 144 140 135 140 140 140 145 149 160 188 145 110 103 91 85 81 77 79 79 77 76 72 64 59 57 53 47 39 34 35 34 26 16 8 6 14 31 41 42 37 39 69 54 30 21 31 31 25 39 62 53 39 88 195 223 193 164 171 182 185 185 188 192 192 187
216 217 222 242 246 236 241 252 256 73 75 90 79 28 28 33 316 265 212 161 138 155 151 141 143 137 133 153 146 87 21 68 115 107 95 91 82 71 66 63 62 66 66 59 52 52 60 64 52 41 38 37 29 20 14 11 13 20 23 26 31 38 38 24 2 350 347 341 326 311 294 278 270 266 263 262 253 225 220 235 241 223 212 215 213 203
225 231 228 234 244 242 239 245 211 96 70 39 26 14 360 303 241 230 182 125 133 160 144 123 132 134 123 124 97 71 61 75 97 100 94 89 79 68 62 56 50 49 51 49 43 36 31 32 34 29 24 22 17 13 13 9 4 7 10 11 25 34 15 355 340 331 326 319 306 295 290 279 267 263 260 260 259 247 240 242 236 223 218 226 230 220
247 246 242 242 249 250 244 241 168 101 34 339 353 30 342 307 217 133 102 112 124 122 100 97 105 115 106 86 77 84 86 86 91 93 84 75 66 55 48 42 39 37 38 39 38 32 20 10 15 17 10 8 7 3 3 359 351 349 348 344 350 357 344 334 330 324 319 316 311 308 304 294 284 277 267 260 259 252 240 230 223 217 216 225 232 225
4 278 249 257 296 268 250 248 162 90 39 312 309 79 12 357 108 121 124 126 118 104 99 101 99 100 104 97 93 94 90 85 82 76 68 61 51 41 35 29 24 23 21 17 19 23 11 357 360 1 351 351 352 349 349 345 337 334 330 324 325 327 323 321 319 316 315 314 312 307 299 288 279 272 265 260 256 251 242 231 223 218 216 221 227 221
17 311 274 38 9 305 278 326 47 68 59 10 26 78 73 77 102 120 123 121 117 109 105 100 91 90 99 107 105 98 87 80 70 61 56 48 38 29 23 20 16 12 10 5 4 8 360 348 348 343 335 336 337 334 335 331 323 320 316 312 313 314 312 310 308 307 306 304 300 295 290 285 277 269 263 256 250 245 241 238 233 230 227 226 227 224
41 29 43 61 50 31 56 83 90 77 65 56 60 76 82 81 81 83 89 97 103 102 99 99 95 86 84 100 107 94 73 62 56 51 41 31 30 23 12 11 12 7 1 355 354 356 349 339 335 330 326 328 328 324 323 319 313 308 304 304 305 303 301 300 297 294 292 289 286 284 282 279 276 271 265 259 252 246 242 238 236 236 234 232 232 233
73 72 69 91 102 91 80 89 101 93 83 76 73 76 77 74 72 78 87 91 89 83 84 90 93 79 64 65 76 72 59 47 40 41 32 16 16 14 4 4 7 359 352 347 346 346 339 331 328 327 323 322 321 318 314 309 304 299 298 298 297 295 292 290 288 286 283 280 278 276 273 272 271 267 263 259 254 251 248 244 240 238 237 237 239 238
75 37 70 128 148 133 100 103 107 104 104 101 96 95 93 87 85 89 93 94 93 91 87 85 87 82 70 59 52 50 54 48 33 26 20 10 7 5 359 358 355 349 343 338 336 333 328 324 323 324 321 318 316 313 309 304 299 296 295 296 296 294 291 289 285 281 279 276 274 272 268 266 265 264 261 259 255 252 250 246 244 244 243 241 241 241
43 328 22 107 124 121 119 121 121 118 117 113 109 108 106 102 101 101 103 108 111 107 101 97 90 76 65 61 52 41 43 50 37 12 357 355 356 355 355 352 343 334 328 325 323 320 318 315 314 314 312 310 309 307 303 300 296 294 294 294 294 293 290 286 283 280 278 276 275 273 269 265 264 262 259 258 256 254 252 249 249 251 249 246 244 245
296 269 301 81 98 113 126 136 138 133 129 123 110 100 99 103 107 106 109 120 120 105 93 93 87 74 65 59 47 25 14 39 42 6 343 337 347 357 352 341 330 325 324 322 319 316 312 308 308 307 304 303 304 302 298 294 291 292 293 291 291 292 290 288 285 281 276 273 271 270 269 266 264 260 257 256 254 252 251 252 252 252 252 254 256 253
291 298 39 127 156 137 132 140 137 125 131 130 113 99 95 98 104 104 102 99 87 73 55 42 66 81 79 65 42 3 348 27 40 359 332 334 349 351 341 333 330 328 326 323 319 315 310 307 305 303 302 303 304 301 298 296 295 294 293 290 288 288 287 287 287 284 279 275 270 266 265 264 262 259 256 255 253 251 251 250 248 245 244 249 253 249
352 4 22 23 109 106 118 131 110 72 106 118 114 114 114 109 111 116 99 72 58 54 20 355 5 15 21 49 60 20 356 12 13 349 338 341 343 340 337 338 335 328 322 319 314 311 310 310 308 306 306 307 306 302 300 298 296 294 293 292 290 288 285 283 281 279 277 275 272 269 267 264 263 263 261 257 255 254 252 249 243 235 233 238 239 234
Height
739 748 747 744 738 733 733 728 726 724 720 720 718 719 721 717 718 712 705 708 712 722 726 722 723 721 718 714 713 719 721 724 726 726 731 734 735 738 740 740 740 742 741 740 743 746 750 754 759 764 765 767 772 777 782 784 787 790 794 796 797 799 800 800 801 803 804 805 806 806 806 806 806 807 808 809 809 810 811 811 812 812 813 813 813 814
740 749 743 734 730 725 727 726 726 731 730 729 724 720 720 717 714 707 706 712 715 725 726 720 721 720 718 713 709 717 724 726 725 726 731 734 734 735 736 738 739 740 739 739 743 746 752 759 763 767 767 769 774 779 783 787 790 792 794 798 800 801 801 801 801 803 805 807 807 807 806 807 807 808 809 810 811 812 812 813 813 814 814 814 815 815
748 747 735 725 724 725 728 729 731 736 736 734 729 726 724 717 712 706 708 715 718 728 728 719 722 722 714 709 710 719 724 724 722 723 728 731 732 733 735 737 738 739 740 740 743 749 759 766 769 769 769 771 776 780 785 789 789 790 792 794 797 799 801 801 801 801 805 808 808 807 807 807 808 808 810 811 812 813 814 814 814 815 815 816 816 817
749 739 726 720 724 731 735 735 737 739 738 736 732 730 726 716 715 717 719 720 718 724 725 718 721 721 713 712 716 720 721 722 722 720 723 726 728 730 732 735 736 739 741 741 747 757 767 772 771 771 772 775 779 782 785 787 787 787 789 791 794 798 800 801 801 802 806 809 809 808 808 808 809 810 811 812 813 814 815 815 815 816 816 817 817 818
734 722 717 720 727 735 739 739 741 742 740 736 731 729 723 714 713 717 721 721 720 724 722 720 728 725 718 723 725 722 722 723 722 721 724 725 725 727 731 734 736 737 739 744 754 767 773 774 772 770 770 774 780 784 784 784 785 785 788 791 793 796 798 800 802 804 809 810 809 809 809 809 810 811 812 813 814 815 815 816 816 817 818 818 818 819
725 717 718 726 732 734 738 739 739 741 739 734 730 725 719 715 712 714 720 725 731 734 722 724 742 735 721 725 727 725 728 728 725 725 727 727 726 728 732 735 736 736 742 751 762 770 771 769 768 767 767 771 779 785 786 786 787 786 788 790 793 796 798 800 803 807 811 810 809 809 808 809 809 811 812 813 814 815 816 817 817 818 818 819 819 820
722 719 723 729 733 734 737 737 733 734 739 734 724 719 719 717 714 716 721 728 736 736 720 718 739 740 727 725 722 723 729 730 728 728 728 728 729 730 732 736 736 739 751 763 766 766 764 762 761 762 765 771 777 782 785 786 788 789 790 792 795 799 800 801 804 808 811 810 809 808 807 807 808 809 811 813 815 816 817 818 818 819 819 820 820 821
720 724 727 729 733 735 736 735 727 728 737 730 714 713 719 719 720 721 722 726 726 726 723 717 723 734 734 725 715 718 729 729 728 732 731 730 732 732 733 735 736 743 756 765 764 761 760 759 758 760 764 768 773 779 782 786 790 792 794 797 799 801 801 802 806 809 810 809 808 807 806 806 807 809 811 814 815 817 818 819 819 820 820 821 821 822
718 726 730 730 734 734 730 726 720 723 731 724 712 713 715 717 720 720 721 723 721 729 737 723 716 734 741 725 711 716 726 727 727 731 732 732 733 734 736 735 739 752 758 758 759 759 757 757 758 761 765 767 771 776 781 785 790 794 797 800 802 803 804 804 806 808 807 807 806 805 805 805 807 809 811 814 816 817 818 819 820 820 821 822 822 823
717 720 721 726 732 728 721 714 712 720 725 717 713 713 713 715 716 717 721 721 725 739 743 725 718 736 744 729 718 723 727 723 723 727 731 735 735 734 738 737 745 762 761 755 757 757 756 757 759 763 767 769 771 773 777 780 784 789 791 795 799 801 803 804 805 807 806 806 805 804 804 805 807 809 811 813 816 817 818 819 820 821 822 823 824 824
715 715 716 720 721 716 713 710 710 715 716 714 717 716 717 718 715 720 720 719 737 751 739 722 717 727 738 733 723 722 722 718 720 726 732 738 738 738 742 744 754 767 763 755 756 756 756 758 761 765 768 770 773 774 776 778 780 783 786 789 793 796 799 801 804 807 807 806 805 805 805 806 808 810 811 813 815 816 818 819 820 821 822 823 824 825
718 722 722 717 713 711 715 717 715 713 711 715 720 718 725 728 724 728 726 728 753 758 733 715 713 723 740 742 725 713 714 717 720 724 729 733 735 737 742 746 754 762 761 757 756 754 756 759 761 766 768 771 774 776 778 780 780 782 784 786 790 793 796 799 802 807 809 807 806 806 806 808 809 810 812 813 814 816 818 819 820 821 822 824 825 826
723 721 719 716 712 712 720 721 719 718 715 719 721 721 734 743 744 748 744 742 752 747 725 711 714 726 736 737 728 720 721 725 724 723 726 728 732 735 738 742 748 754 756 756 754 754 755 758 761 764 768 771 774 777 779 779 779 780 783 785 788 791 795 797 799 805 809 808 806 807 808 809 810 811 812 813 814 816 817 819 820 821 822 824 825 826
730 722 715 717 715 712 718 720 722 725 721 722 722 724 737 749 761 766 754 747 747 737 721 713 720 732 733 731 730 729 730 730 727 727 729 730 733 736 738 744 750 751 753 753 753 755 756 758 760 763 767 770 772 775 777 778 779 780 782 783 785 789 793 796 798 803 808 807 807 808 809 810 811 812 812 813 814 816 818 819 820 821 822 824 825 826
735 733 718 716 715 712 715 713 712 714 717 719 713 715 727 736 752 761 750 746 745 735 724 724 732 737 736 732 725 724 729 730 731 734 735 737 738 741 745 751 755 753 752 752 752 754 756 758 760 762 766 769 772 775 777 778 779 780 782 783 784 787 791 795 797 801 804 804 806 808 810 811 812 812 812 813 815 817 818 819 820 821 822 824 825 826
727 727 708 705 705 705 713 709 701 707 716 714 705 712 723 720 726 740 743 742 745 744 735 732 734 728 729 731 722 722 726 726 730 734 735 739 741 746 750 752 753 751 750 750 751 754 757 758 761 764 767 769 772 776 779 780 781 782 784 785 786 788 790 794 796 798 799 801 805 808 810 812 813 812 813 813 815 817 819 820 821 822 823 824 825 826
726 720 700 700 703 701 706 704 700 708 715 714 714 716 711 704 709 728 740 737 745 757 744 731 733 726 729 738 728 724 728 727 730 733 734 736 738 742 745 745 747 748 749 750 751 756 759 759 762 764 768 769 771 774 778 781 783 784 785 786 787 789 791 794 795 796 797 799 804 807 810 813 813 813 813 814 816 817 819 821 821 822 823 824 825 826
724 724 704 701 710 704 699 701 700 699 704 718 727 715 701 704 710 721 739 742 748 759 744 730 737 732 732 739 731 727 734 735 735 737 739 739 741 745 744 744 747 747 749 752 754 758 759 760 763 765 768 771 771 773 775 777 781 784 787 787 788 790 792 795 796 796 797 799 803 807 810 813 814 814 814 815 816 817 819 820 821 823 824 825 826 826
720 733 718 703 709 705 697 707 712 701 697 708 714 704 706 725 728 725 740 750 752 757 746 733 734 730 727 729 727 729 733 736 740 743 745 746 746 747 746 746 748 748 751 754 756 760 760 761 763 765 769 772 774 776 776 777 779 782 786 787 789 793 795 796 797 798 799 799 802 806 809 812 813 814 814 815 816 817 819 820 821 822 824 825 826 826
718 737 731 708 703 703 703 714 721 714 705 704 706 704 707 720 725 725 732 737 741 751 751 742 736 733 730 722 719 725 729 734 743 747 748 751 751 749 747 748 749 749 752 755 757 760 761 763 765 766 769 771 774 777 778 779 781 783 786 787 789 793 796 798 798 799 800 801 802 805 808 811 813 814 814 815 816 817 818 819 820 822 824 825 826 827
718 736 738 720 707 708 712 714 714 714 709 709 716 717 713 712 716 722 725 723 729 741 747 746 742 740 736 724 719 727 734 738 746 750 751 753 753 751 749 750 750 751 753 755 759 761 763 765 767 769 771 772 775 778 779 781 783 785 787 788 789 791 795 797 797 798 800 801 804 807 808 810 812 813 813 814 815 817 818 820 821 822 824 825 826 827
720 729 734 732 726 722 716 704 700 703 703 706 713 715 715 713 717 732 737 726 724 733 737 740 747 750 740 725 723 732 738 741 744 747 747 750 753 752 751 752 753 755 757 759 761 763 765 767 769 771 772 773 776 778 781 783 785 786 787 788 790 791 793 795 795 796 798 801 805 808 808 810 811 811 812 813 815 816 818 820 821 822 824 825 826 827
719 724 730 732 728 722 712 701 700 701 699 701 703 704 707 709 715 733 740 732 725 725 726 731 744 753 742 726 725 730 731 733 737 739 741 748 753 753 752 754 755 758 761 761 762 764 766 768 770 772 774 775 777 778 781 783 784 786 787 788 790 791 792 794 794 795 797 801 805 806 806 807 808 809 811 812 814 816 817 819 820 822 823 824 825 826
724 729 735 733 724 719 713 705 703 703 704 708 706 702 705 709 715 721 724 730 732 728 727 733 744 753 744 731 729 729 727 729 734 737 741 747 751 752 754 756 757 760 762 763 764 765 767 769 770 772 774 776 779 780 781 782 784 786 788 789 790 790 792 793 794 796 798 800 802 803 804 805 806 807 810 811 813 814 816 818 819 821 822 823 824 825
729 734 740 744 743 743 737 724 717 713 711 713 709 705 706 707 713 716 716 728 737 731 729 737 748 754 746 736 733 731 732 735 736 739 745 750 753 755 756 758 759 762 764 765 767 768 769 771 771 772 773 775 778 779 780 783 784 786 787 788 789 790 791 792 794 795 797 798 799 800 801 803 805 806 808 809 811 813 814 816 818 820 821 822 823 824
730 736 741 751 759 764 762 755 746 735 722 715 711 710 711 710 713 718 722 732 739 734 731 738 751 756 747 743 742 740 743 746 744 745 749 751 755 756 757 759 761 764 767 768 771 774 773 773 773 773 774 775 777 779 780 782 784 785 787 788 789 791 791 792 793 794 796 797 798 800 802 803 804 805 806 808 810 812 814 816 817 819 820 821 822 823
729 735 738 746 753 759 764 763 754 743 734 726 718 715 716 716 716 720 728 733 734 733 734 735 743 753 753 753 754 752 753 752 752 755 754 752 755 758 758 760 762 766 769 771 774 777 775 775 775 776 776 777 778 780 781 783 784 786 788 788 790 791 791 792 793 794 795 796 798 800 802 804 804 804 806 808 809 812 816 817 817 818 819 820 821 822
732 739 740 744 747 749 753 754 752 749 741 729 720 721 723 722 723 729 736 735 730 736 746 745 742 749 755 756 757 758 757 753 753 758 758 756 758 761 762 764 766 768 769 770 773 774 775 776 777 777 779 779 780 783 784 785 786 788 789 790 791 791 791 792 792 793 795 796 797 798 800 804 806 806 807 807 808 811 815 816 816 817 818 819 819 820
730 738 742 745 749 749 748 748 751 754 748 735 731 734 732 728 731 736 737 734 730 738 753 760 757 754 753 754 758 761 761 758 758 759 760 761 763 763 764 767 769 770 770 771 774 775 776 778 778 779 781 781 782 785 786 787 788 789 790 791 792 792 793 793 793 794 795 796 797 798 799 803 806 807 808 809 809 811 813 815 815 816 818 820 820 821
727 737 741 742 747 751 751 750 751 755 755 751 748 746 741 737 736 739 739 736 736 743 750 758 764 763 758 758 762 765 764 763 763 765 768 771 771 767 764 764 767 769 771 774 776 777 779 780 780 780 781 782 783 785 786 788 789 791 791 792 793 793 793 794 794 795 795 796 798 800 802 804 805 806 808 810 810 811 813 816 816 815 818 820 821 822
731 743 742 740 747 753 753 753 755 759 761 761 759 756 753 750 746 747 749 747 748 756 758 760 769 772 766 764 767 770 769 768 770 774 775 776 774 770 767 768 770 772 773 776 777 779 781 781 782 783 783 784 785 786 788 790 791 792 793 793 793 794 794 795 795 795 796 797 798 800 802 804 805 806 808 809 811 813 815 816 816 816 818 820 821 822
734 743 743 744 751 752 751 754 757 761 766 769 767 764 764 765 763 760 760 759 760 762 761 763 772 774 768 766 771 774 775 776 779 780 779 777 776 774 774 774 775 776 777 779 781 782 784 785 786 787 786 785 786 788 790 791 792 793 793 793 794 794 796 796 796 797 797 798 799 800 802 803 805 806 807 808 811 813 814 815 816 817 819 819 820 821
735 741 742 746 752 750 748 752 757 765 773 773 767 765 767 772 774 771 770 770 769 765 763 766 772 770 766 767 773 779 784 786 788 788 787 786 786 788 789 787 786 786 785 785 786 788 790 792 793 793 792 789 788 789 790 791 793 794 794 794 794 795 796 797 797 799 799 800 801 801 802 804 804 805 806 808 810 812 813 815 816 817 818 819 820 820
739 740 736 739 747 750 748 753 762 770 774 770 766 766 767 769 773 777 779 779 776 772 770 772 774 772 771 773 778 784 790 795 798 800 799 799 800 800 801 801 800 798 797 795 796 797 798 800 801 800 799 797 795 794 794 795 796 796 796 796 796 796 797 797 798 799 800 801 802 802 803 804 804 806 807 808 809 810 812 814 816 817 818 819 821 821
742 742 737 737 743 751 755 761 770 773 769 767 769 768 766 767 771 778 781 780 778 778 778 780 783 784 783 784 786 789 793 796 800 805 808 809 809 809 810 812 811 809 809 808 807 807 807 806 806 805 804 803 802 800 799 799 798 798 798 798 798 798 798 798 799 800 801 802 802 803 804 804 805 806 807 808 809 810 811 812 814 816 818 819 820 821
740 745 747 745 747 757 764 765 769 771 768 768 771 767 765 768 771 775 781 781 778 778 781 785 789 790 790 791 792 792 794 795 797 802 806 809 811 812 814 817 819 818 818 817 815 813 811 809 809 809 809 808 806 804 803 803 802 802 801 801 801 800 800 801 801 802 803 803 803 804 804 805 806 806 807 808 809 810 811 812 813 815 817 817 818 819
738 744 750 751 750 755 760 761 765 770 771 770 770 767 766 768 767 767 776 782 777 774 779 786 789 791 793 794 794 794 794 796 798 801 804 805 807 810 812 814 817 818 819 819 818 816 814 813 812 812 812 811 809 808 807 806 806 805 805 805 804 803 803 803 804 804 805 805 805 806 806 806 807 807 808 809 809 810 811 812 813 814 815 816 817 818
738 741 745 750 751 751 756 761 763 768 772 772 772 770 769 770 767 764 771 780 778 772 775 783 786 789 791 792 794 793 791 794 801 805 805 805 807 808 810 811 813 815 816 817 817 817 817 817 816 816 815 813 812 811 810 809 808 807 807 807 807 806 806 806 807 807 807 807 807 808 808 808 809 809 810 810 810 810 812 813 813 814 814 815 816 817
740 741 744 750 753 753 758 760 759 768 778 778 777 776 773 772 772 769 771 780 781 774 773 779 782 784 787 788 789 790 788 791 801 806 806 807 809 809 810 811 812 814 816 817 817 818 819 820 821 820 819 818 817 815 813 812 810 808 808 808 807 806 806 808 809 810 810 810 810 810 810 810 811 811 811 811 811 811 813 813 813 814 814 815 816 817
744 745 749 757 759 757 758 758 763 777 784 779 778 778 775 775 777 774 773 779 782 777 774 777 781 783 785 786 787 791 793 793 799 806 807 809 811 811 812 813 813 815 816 817 818 818 819 821 822 821 820 820 819 817 816 815 813 812 811 810 809 809 810 811 813 813 813 813 812 812 812 811 812 813 812 812 812 812 813 813 814 814 815 815 816 816
749 748 752 758 758 757 760 762 768 781 784 780 779 779 776 776 777 777 779 782 784 780 777 779 784 786 788 790 792 797 801 800 802 808 809 810 812 813 814 815 816 816 817 818 819 820 820 821 821 820 820 820 819 819 818 818 817 815 815 814 813 814 815 816 815 815 815 814 813 813 812 812 812 812 812 812 812 812 813 813 814 814 815 816 816 816
755 755 752 753 754 756 760 763 771 785 792 787 783 781 780 780 781 783 787 787 785 784 783 786 789 790 792 796 799 802 805 805 807 810 812 813 814 815 816 817 817 818 819 819 820 821 821 821 821 821 821 821 821 821 820 819 819 818 817 817 817 817 818 817 817 816 815 814 814 813 812 812 812 812 812 812 812 812 812 813 813 814 815 816 816 816
763 762 755 757 761 758 757 763 776 791 796 789 783 783 782 783 785 787 787 786 787 790 792 794 796 796 798 802 805 807 809 811 812 814 815 816 817 817 818 819 819 820 820 820 821 822 823 822 822 822 822 822 822 821 821 820 820 819 819 818 818 818 818 817 817 816 815 815 814 813 813 813 813 813 813 812 812 812 812 812 813 814 814 815 815 815
768 767 761 768 774 767 767 780 790 793 790 785 784 786 785 784 785 785 784 787 791 794 797 801 802 802 803 806 808 811 813 814 816 817 817 818 819 820 821 821 821 822 822 822 822 823 823 823 823 823 823 822 822 821 821 821 820 820 820 819 818 818 817 817 816 816 815 815 814 814 813 813 812 812 812 811 812 811 811 812 812 813 813 814 814 814
772 772 770 777 782 779 783 794 797 792 789 788 789 790 790 789 789 788 790 794 797 798 801 806 808 809 809 809 811 814 815 816 817 818 819 820 821 822 822 822 823 824 824 824 824 824 824 824 823 823 822 822 822 821 821 821 820 820 820 819 819 818 817 817 816 815 815 814 814 813 813 812 812 811 811 810 810 810 810 810 810 811 811 811 812 812
773 772 773 779 784 787 792 797 796 795 797 797 797 797 798 797 797 797 798 802 805 806 807 810 813 815 814 813 814 816 818 819 819 820 821 822 822 823 824 824 824 825 825 825 825 825 825 824 823 823 822 821 821 821 821 821 820 819 819 819 818 818 817 816 816 815 815 814 813 813 812 812 811 810 809 809 809 808 808 808 808 808 809 809 809 810
773 772 774 779 782 787 796 800 798 799 801 801 801 803 803 803 804 805 806 809 812 813 814 816 817 818 818 817 818 818 819 821 821 822 822 823 823 824 824 824 825 825 825 825 825 825 825 824 823 822 822 822 821 821 820 820 819 819 818 818 817 817 816 816 815 814 814 813 812 811 811 810 809 809 808 807 807 806 805 805 805 805 805 806 807 807
776 773 775 778 781 787 796 799 798 798 799 799 800 802 803 805 808 809 810 813 814 815 817 818 818 818 819 819 820 821 821 822 823 823 822 822 823 823 824 824 825 825 825 825 825 825 824 823 823 822 822 822 821 821 820 820 819 819 818 817 817 816 815 815 814 813 812 811 811 810 809 808 807 807 806 806 805 804 803 803 803 803 803 804 804 805
776 774 774 779 787 793 796 796 795 797 798 798 799 801 802 804 807 809 810 811 812 814 816 817 817 819 819 820 821 822 821 821 822 823 823 822 822 823 824 824 824 824 824 824 823 823 823 822 822 821 821 820 820 820 819 819 819 818 818 817 817 816 815 814 813 812 811 810 809 808 807 806 805 804 803 803 802 802 801 801 801 801 801 801 802 804
776 776 776 780 788 793 794 793 794 796 798 800 802 804 805 806 807 809 810 810 811 814 816 816 816 817 818 820 822 822 821 821 823 824 823 822 822 823 824 824 824 823 823 823 822 822 821 821 820 819 819 818 818 818 817 817 817 817 817 817 816 815 815 814 813 811 810 809 807 806 805 804 803 801 801 800 799 798 798 797 798 798 798 799 800 802
783 783 782 783 788 791 792 793 794 796 799 803 805 806 807 808 808 809 811 813 814 816 817 817 817 817 818 819 822 823 822 822 823 823 823 822 823 823 823 823 823 823 822 822 821 820 819 819 818 818 817 817 817 816 816 815 815 816 816 816 815 814 813 813 812 810 809 807 806 804 803 802 801 799 798 797 796 795 794 794 794 795 795 797 798 800